timestamp,surface_pressure_avg,surface_temp_avg,battery_voltage,lat,long
2022-06-02 00:09:00+00:00,359.2196,5.0,12.01,47.84626,-54.09684
2022-06-02 00:19:00+00:00,362.8397,4.95,12.01,47.84626,-54.09684
2022-06-02 00:29:00+00:00,366.0295,4.9,12.01,47.84626,-54.09684
2022-06-02 00:39:00+00:00,367.2312,4.9,12.01,47.84626,-54.09684
2022-06-02 00:49:00+00:00,368.2313,4.93,12.01,47.84626,-54.09684
2022-06-02 00:59:00+00:00,369.5979,4.9,12.01,47.84626,-54.09684
2022-06-02 01:09:00+00:00,369.7979,4.9,12.01,47.84626,-54.09684
2022-06-02 01:19:00+00:00,369.3312,4.9,12.01,47.84626,-54.09684
2022-06-02 01:29:00+00:00,369.3514,4.9,12.01,47.84626,-54.09684
2022-06-02 01:39:00+00:00,370.723,4.9,12.01,47.84626,-54.09684
2022-06-02 01:49:00+00:00,367.413,4.9,12.01,47.84626,-54.09684
2022-06-02 01:59:00+00:00,362.8663,4.9,12.01,47.84626,-54.09684
2022-06-02 02:09:00+00:00,362.1796,4.95,12.01,47.84626,-54.09684
2022-06-02 02:19:00+00:00,362.6096,4.96,12.01,47.84626,-54.09684
2022-06-02 02:29:00+00:00,359.6429,4.97,12.01,47.84626,-54.09684
2022-06-02 02:39:00+00:00,357.7663,4.98,12.01,47.84626,-54.09684
2022-06-02 02:49:00+00:00,358.1446,4.97,12.01,47.84626,-54.09684
2022-06-02 02:59:00+00:00,356.0647,4.98,12.01,47.84626,-54.09684
2022-06-02 03:09:00+00:00,350.0963,5.0,12.01,47.84626,-54.09684
2022-06-02 03:19:01+00:00,344.0713,4.9,12.01,47.84626,-54.09684
2022-06-02 03:29:01+00:00,339.6362,4.9,12.01,47.84626,-54.09684
2022-06-02 03:39:01+00:00,333.4464,4.9,12.01,47.84626,-54.09684
2022-06-02 03:49:01+00:00,325.6296,4.9,12.01,47.84626,-54.09684
2022-06-02 03:59:01+00:00,319.4847,4.9,12.01,47.84626,-54.09684
2022-06-02 04:09:01+00:00,314.2713,4.9,12.01,47.84626,-54.09684
2022-06-02 04:19:00+00:00,306.6964,4.9,12.01,47.84626,-54.09684
2022-06-02 04:29:00+00:00,299.998,4.9,12.01,47.84626,-54.09684
2022-06-02 04:39:00+00:00,293.5297,4.9,12.01,47.84626,-54.09684
2022-06-02 04:49:00+00:00,285.3731,4.9,12.01,47.84626,-54.09684
2022-06-02 04:59:00+00:00,276.5381,4.9,12.01,47.84626,-54.09684
2022-06-02 05:09:00+00:00,267.3081,4.9,12.01,47.84626,-54.09684
2022-06-02 05:19:00+00:00,257.3864,4.9,12.01,47.84626,-54.09684
2022-06-02 05:29:00+00:00,251.1264,4.9,12.01,47.84626,-54.09684
2022-06-02 05:39:00+00:00,246.2248,4.9,12.01,47.84626,-54.09684
2022-06-02 05:49:00+00:00,238.4948,4.96,12.01,47.84626,-54.09684
2022-06-02 05:59:00+00:00,230.8281,4.98,12.01,47.84626,-54.09684
2022-06-02 06:09:00+00:00,229.6548,4.9,12.01,47.84626,-54.09684
2022-06-02 06:19:00+00:00,227.1081,4.94,12.01,47.84626,-54.09684
2022-06-02 06:29:00+00:00,219.8315,4.97,12.01,47.84626,-54.09684
2022-06-02 06:39:00+00:00,214.7931,4.97,12.01,47.84626,-54.09684
2022-06-02 06:49:00+00:00,214.6564,4.97,12.01,47.84626,-54.09684
2022-06-02 06:59:00+00:00,214.3781,4.94,12.01,47.84626,-54.09684
2022-06-02 07:09:00+00:00,212.1464,4.9,12.01,47.84626,-54.09684
2022-06-02 07:19:00+00:00,215.0414,4.9,12.01,47.84626,-54.09684
2022-06-02 07:29:00+00:00,219.3347,4.9,12.01,47.84626,-54.09684
2022-06-02 07:39:00+00:00,220.2515,4.9,12.01,47.84626,-54.09684
2022-06-02 07:49:00+00:00,222.4481,4.9,12.01,47.84626,-54.09684
2022-06-02 07:59:00+00:00,226.0681,4.8,12.01,47.84626,-54.09684
2022-06-02 08:09:00+00:00,230.2715,4.6,12.01,47.84626,-54.09684
2022-06-02 08:19:01+00:00,232.1964,4.57,12.01,47.84626,-54.09684
2022-06-02 08:29:01+00:00,236.0464,4.6,12.01,47.84626,-54.09684
2022-06-02 08:39:01+00:00,240.5681,4.7,12.01,47.84626,-54.09684
2022-06-02 08:49:01+00:00,244.6548,4.7,12.01,47.84626,-54.09684
2022-06-02 08:59:01+00:00,248.1697,4.7,12.01,47.84626,-54.09684
2022-06-02 09:09:01+00:00,254.1081,4.6,12.01,47.84626,-54.09684
2022-06-02 09:19:01+00:00,258.0797,4.6,12.01,47.84626,-54.09684
2022-06-02 09:29:01+00:00,259.1981,4.5,12.01,47.84626,-54.09684
2022-06-02 09:39:01+00:00,260.6997,4.49,12.01,47.84626,-54.09684
2022-06-02 09:49:01+00:00,265.0397,4.4,12.01,47.84626,-54.09684
2022-06-02 09:59:01+00:00,267.3347,4.4,12.01,47.84626,-54.09684
2022-06-02 10:09:01+00:00,268.2781,4.39,12.01,47.84626,-54.09684
2022-06-02 10:19:01+00:00,270.6997,4.3,12.01,47.84626,-54.09684
2022-06-02 10:29:01+00:00,274.3981,4.3,12.01,47.84626,-54.09684
2022-06-02 10:39:01+00:00,277.6831,4.2,12.01,47.84626,-54.09684
2022-06-02 10:49:01+00:00,281.9797,4.1,12.01,47.84626,-54.09684
2022-06-02 10:59:01+00:00,286.6397,3.9,12.01,47.84626,-54.09684
2022-06-02 11:09:01+00:00,291.6147,3.9,12.01,47.84626,-54.09684
2022-06-02 11:19:00+00:00,295.5397,4.0,12.01,47.84626,-54.09684
2022-06-02 11:29:00+00:00,299.063,3.95,12.01,47.84626,-54.09684
2022-06-02 11:39:00+00:00,304.7713,3.8,12.01,47.84626,-54.09684
2022-06-02 11:49:00+00:00,310.9814,3.77,12.01,47.84626,-54.09684
2022-06-02 11:59:00+00:00,314.8147,3.83,12.01,47.84626,-54.09684
2022-06-02 12:09:00+00:00,318.9763,3.89,12.01,47.84626,-54.09684
2022-06-02 12:19:01+00:00,323.7064,3.9,12.17,47.84626,-54.09684
2022-06-02 12:29:01+00:00,329.778,3.8,12.17,47.84626,-54.09684
2022-06-02 12:39:01+00:00,333.2247,3.8,12.17,47.84626,-54.09684
2022-06-02 12:49:01+00:00,333.213,3.85,12.17,47.84626,-54.09684
2022-06-02 12:59:01+00:00,336.0063,3.9,12.17,47.84626,-54.09684
2022-06-02 13:09:01+00:00,337.5464,3.9,12.17,47.84626,-54.09684
2022-06-02 13:19:00+00:00,339.7713,3.9,12.09,47.84626,-54.09684
2022-06-02 13:29:00+00:00,336.458,3.89,12.09,47.84626,-54.09684
2022-06-02 13:39:00+00:00,335.7630000000001,3.86,12.09,47.84626,-54.09684
2022-06-02 13:49:00+00:00,335.288,3.8,12.09,47.84626,-54.09684
2022-06-02 13:59:00+00:00,332.1946,3.8,12.09,47.84626,-54.09684
2022-06-02 14:09:00+00:00,330.1429,3.8,12.09,47.84626,-54.09684
2022-06-02 14:19:01+00:00,329.92800000000005,3.8,12.09,47.84626,-54.09684
2022-06-02 14:29:01+00:00,326.5613,3.8,12.09,47.84626,-54.09684
2022-06-02 14:39:01+00:00,320.4664,3.8,12.09,47.84626,-54.09684
2022-06-02 14:49:01+00:00,319.168,3.8,12.09,47.84626,-54.09684
2022-06-02 14:59:01+00:00,317.718,3.8,12.09,47.84626,-54.09684
2022-06-02 15:09:01+00:00,313.1797,3.9,12.09,47.84626,-54.09684
2022-06-02 15:19:00+00:00,310.5681,3.83,12.25,47.84626,-54.09684
2022-06-02 15:29:00+00:00,310.393,3.88,12.25,47.84626,-54.09684
2022-06-02 15:39:00+00:00,304.843,3.98,12.25,47.84626,-54.09684
2022-06-02 15:49:00+00:00,297.7797,3.9,12.25,47.84626,-54.09684
2022-06-02 15:59:00+00:00,291.9697,3.87,12.25,47.84626,-54.09684
2022-06-02 16:09:00+00:00,288.5181,3.8,12.25,47.84626,-54.09684
2022-06-02 16:19:00+00:00,283.7064,3.8,12.33,47.84626,-54.09684
2022-06-02 16:29:00+00:00,277.6897,4.0,12.33,47.84626,-54.09684
2022-06-02 16:39:00+00:00,271.7798,3.96,12.33,47.84626,-54.09684
2022-06-02 16:49:00+00:00,265.7648,4.0,12.33,47.84626,-54.09684
2022-06-02 16:59:00+00:00,257.8114,3.98,12.33,47.84626,-54.09684
2022-06-02 17:09:00+00:00,249.8714,3.97,12.33,47.84626,-54.09684
2022-06-02 17:19:00+00:00,243.3181,3.95,12.17,47.84626,-54.09684
2022-06-02 17:29:00+00:00,237.9598,3.9,12.17,47.84626,-54.09684
2022-06-02 17:39:00+00:00,230.8481,3.9,12.17,47.84626,-54.09684
2022-06-02 17:49:00+00:00,226.3348,3.9,12.17,47.84626,-54.09684
2022-06-02 17:59:00+00:00,224.6998,3.9,12.17,47.84626,-54.09684
2022-06-02 18:09:00+00:00,221.9798,3.9,12.17,47.84626,-54.09684
2022-06-02 18:19:00+00:00,218.3415,3.9,12.17,47.84626,-54.09684
2022-06-02 18:29:00+00:00,213.1731,3.8,12.17,47.84626,-54.09684
2022-06-02 18:39:00+00:00,208.6964,3.9,12.17,47.84626,-54.09684
2022-06-02 18:49:00+00:00,207.8264,3.8,12.17,47.84626,-54.09684
2022-06-02 18:59:00+00:00,209.6364,3.8,12.17,47.84626,-54.09684
2022-06-02 19:09:00+00:00,209.7914,3.8,12.17,47.84626,-54.09684
2022-06-02 19:19:00+00:00,209.9231,3.8,12.09,47.84626,-54.09684
2022-06-02 19:29:00+00:00,212.7398,3.8,12.09,47.84626,-54.09684
2022-06-02 19:39:00+00:00,215.3831,3.7,12.09,47.84626,-54.09684
2022-06-02 19:49:00+00:00,216.2314,3.66,12.09,47.84626,-54.09684
2022-06-02 19:59:00+00:00,218.5865,3.71,12.09,47.84626,-54.09684
2022-06-02 20:09:00+00:00,223.8465,3.7,12.09,47.84626,-54.09684
2022-06-02 20:19:01+00:00,230.3464,3.7,12.09,47.84626,-54.09684
2022-06-02 20:29:01+00:00,232.2647,3.74,12.09,47.84626,-54.09684
2022-06-02 20:39:01+00:00,232.4865,3.79,12.09,47.84626,-54.09684
2022-06-02 20:49:01+00:00,235.5864,3.79,12.09,47.84626,-54.09684
2022-06-02 20:59:01+00:00,241.4798,3.77,12.09,47.84626,-54.09684
2022-06-02 21:09:01+00:00,245.1681,3.77,12.09,47.84626,-54.09684
2022-06-02 21:19:01+00:00,248.8297,3.79,12.01,47.84626,-54.09684
2022-06-02 21:29:01+00:00,253.4564,3.8,12.01,47.84626,-54.09684
2022-06-02 21:39:01+00:00,260.0314,3.79,12.01,47.84626,-54.09684
2022-06-02 21:49:01+00:00,261.7164,3.7,12.01,47.84626,-54.09684
2022-06-02 21:59:01+00:00,264.0581,3.7,12.01,47.84626,-54.09684
2022-06-02 22:09:01+00:00,271.1765,3.7,12.01,47.84626,-54.09684
2022-06-02 22:19:00+00:00,279.0781,3.7,12.01,47.84626,-54.09684
2022-06-02 22:29:00+00:00,280.4647,3.52,12.01,47.84626,-54.09684
2022-06-02 22:39:00+00:00,283.0814,3.41,12.01,47.84626,-54.09684
2022-06-02 22:49:00+00:00,286.4664,3.3,12.01,47.84626,-54.09684
2022-06-02 22:59:00+00:00,291.678,3.33,12.01,47.84626,-54.09684
2022-06-02 23:09:00+00:00,296.21299999999997,3.5,12.01,47.84626,-54.09684
2022-06-02 23:19:00+00:00,302.9997,3.4,12.01,47.84626,-54.09684
2022-06-02 23:29:00+00:00,309.0564,3.28,12.01,47.84626,-54.09684
2022-06-02 23:39:00+00:00,317.0113,3.24,12.01,47.84626,-54.09684
2022-06-02 23:49:00+00:00,322.7731,3.31,12.01,47.84626,-54.09684
2022-06-02 23:59:00+00:00,326.9747,3.39,12.01,47.84626,-54.09684
